[[{"header":{"parameterUnit":"m.s-1","parameterCategory":2,"la1":30.2992,"la2":30.254,"lo1":-89.0895,"lo2":-89.0443,"dy":0.0025,"dx":0.0025,"nx":19,"ny":19,"refTime":"2026-05-07T21:00:00:Z","depth":"0","parameterNumber":2,"parameterNumberName":"U-component_of_CURRENTS"},"data":[0,0,0,-0.0988,-0.099,-0.1089,-0.109,-0.1203,-0.1204,0,0,0,0,0,0,0,0,0,0,0,-0.0941,-0.0942,-0.0987,-0.099,-0.1089,-0.109,-0.1203,-0.1204,0,0,0,0,0,0,0,0,0,0,0,-0.0941,-0.0941,-0.0942,-0.0991,-0.1089,-0.109,-0.1203,-0.113,0,0,0,0,0,0,0,0,0,0,-0.1035,-0.0971,-0.0941,-0.0942,-0.0991,-0.1089,-0.109,-0.1127,-0.1135,-0.1156,0,-0.1168,0,-0.1197,-0.1212,-0.1212,0,0,0,-0.0985,-0.0964,-0.1019,-0.0942,-0.0992,-0.1089,-0.1043,-0.1131,-0.114,-0.1166,-0.117,-0.1175,-0.1199,-0.1213,-0.1213,-0.1361,-0.1361,0,0,-0.098,-0.0935,-0.1013,-0.1024,-0.1015,-0.104,-0.1046,-0.1137,-0.1128,-0.1171,-0.1178,-0.1201,-0.1213,-0.1214,-0.136,-0.1361,0,0,0,-0.0967,-0.093,-0.0982,-0.1019,-0.1043,-0.1043,-0.105,-0.1123,-0.1148,-0.1179,-0.1202,-0.1214,-0.1215,-0.1359,-0.136,-0.1268,0,0,0,-0.0964,-0.0925,-0.098,-0.095,-0.1041,-0.1081,-0.1034,-0.1141,-0.1153,-0.1202,-0.1214,-0.1217,-0.1358,-0.136,-0.1269,-0.1174,0,0,0,-0.0937,-0.0921,-0.0938,-0.0948,-0.0998,-0.1081,-0.1109,-0.1144,-0.1168,-0.1212,-0.1217,-0.1358,-0.1359,-0.1269,-0.1178,-0.1065,0,0,0,-0.0881,-0.0897,-0.0936,-0.0959,-0.0998,-0.1067,-0.1109,-0.1155,-0.119,-0.1215,-0.1358,-0.136,-0.1269,-0.1181,-0.1069,-0.0844,-0.0809,0,0,-0.0875,-0.0894,-0.0913,-0.0952,-0.0999,-0.1053,-0.1096,-0.1159,-0.123,-0.1325,-0.1329,-0.1269,-0.1179,-0.1066,-0.0948,-0.0908,0,0,0,-0.0896,-0.0896,-0.092,-0.0954,-0.1023,-0.1049,-0.1129,-0.1179,-0.1267,-0.1263,-0.1331,-0.1278,-0.1208,-0.1084,-0.1055,-0.0997,-0.1368,-0.1368,-0.1368,-0.0812,-0.0866,-0.0872,-0.0933,-0.0975,-0.1058,-0.108,-0.1169,-0.1255,-0.13,-0.1251,-0.1164,-0.1039,-0.1012,-0.096,-0.1337,-0.1337,-0.1337,-0.1336,-0.0765,-0.0767,-0.0811,-0.0836,-0.0896,-0.0937,-0.1043,-0.1098,-0.1125,-0.1244,-0.1181,-0.1055,-0.0972,-0.0929,-0.1332,-0.1332,-0.1333,-0.1333,-0.1334,-0.0709,-0.0709,-0.0725,-0.0738,-0.076,-0.0847,-0.0829,-0.0929,-0.1007,-0.0962,-0.0812,-0.0811,-0.0721,-0.0934,-0.0933,-0.0932,-0.0931,-0.0931,-0.093,-0.0637,-0.065,-0.0626,-0.0642,-0.0628,-0.0649,-0.07,-0.0675,-0.0625,-0.0657,-0.0656,-0.0682,-0.1039,-0.0995,-0.0917,-0.0919,-0.0921,-0.0922,-0.0923,-0.0537,-0.0581,-0.052,-0.0497,-0.0459,-0.0407,-0.0451,-0.0297,-0.0257,-0.0159,-0.0222,-0.0489,-0.0471,-0.0496,-0.044,-0.0222,-0.0222,-0.0222,-0.0222,-0.0472,-0.0493,-0.0409,-0.0344,-0.0286,-0.0291,-0.008,0.0042,0.0135,0.0194,0.0093,0.0026,-0.0005,0.0032,-0.0004,0.0056,0.0395,0.0395,0.0396,-0.0371,-0.038,-0.0289,-0.0274,-0.0198,-0.0147,0.0073,0.0318,0.0467,0.0414,0.0132,0.0106,-0.0015,-0.0068,-0.004,-0.0096,-0.0011,0,0]},{"header":{"parameterUnit":"m.s-1","parameterCategory":2,"la1":30.2992,"la2":30.254,"lo1":-89.0895,"lo2":-89.0443,"dy":0.0025,"dx":0.0025,"nx":19,"ny":19,"refTime":"2026-05-07T21:00:00:Z","depth":"0","parameterNumber":3,"parameterNumberName":"V-component_of_CURRENTS"},"data":[0,0,0,-0.0216,-0.0215,-0.015,-0.0149,-0.0024,-0.0022,0,0,0,0,0,0,0,0,0,0,0,-0.0238,-0.0238,-0.0216,-0.0215,-0.015,-0.0149,-0.0024,-0.0022,0,0,0,0,0,0,0,0,0,0,0,-0.0239,-0.0238,-0.0238,-0.0215,-0.015,-0.0149,-0.0024,-0.008,0,0,0,0,0,0,0,0,0,0,-0.0148,-0.0179,-0.0238,-0.0238,-0.0215,-0.015,-0.0149,-0.0083,-0.0077,-0.0046,0,-0.0045,0,-0.0036,-0.0014,-0.0014,0,0,0,-0.0201,-0.0184,-0.017,-0.0238,-0.0214,-0.015,-0.0175,-0.008,-0.0073,-0.0037,-0.0043,-0.0039,-0.0034,-0.0014,-0.0013,-0.0054,-0.0056,0,0,-0.0205,-0.0218,-0.0176,-0.0166,-0.0208,-0.0178,-0.0174,-0.0076,-0.007,-0.0043,-0.0036,-0.0032,-0.0013,-0.0012,-0.0053,-0.0055,0,0,0,-0.0225,-0.0221,-0.0209,-0.0171,-0.0165,-0.0176,-0.0171,-0.0074,-0.0071,-0.0035,-0.003,-0.0012,-0.0011,-0.0052,-0.0054,-0.0185,0,0,0,-0.0226,-0.0233,-0.0211,-0.0217,-0.0168,-0.0124,-0.0172,-0.0078,-0.0067,-0.0031,-0.0012,-0.0009,-0.005,-0.0053,-0.0178,-0.017,0,0,0,-0.024,-0.0234,-0.0232,-0.0218,-0.0197,-0.0126,-0.0117,-0.0075,-0.0065,-0.0014,-0.0009,-0.0049,-0.0052,-0.0172,-0.0162,-0.014,0,0,0,-0.0248,-0.028,-0.0232,-0.026,-0.0198,-0.0232,-0.0118,-0.0118,-0.009,-0.0011,-0.005,-0.0053,-0.017,-0.0157,-0.0137,-0.0047,-0.0056,0,0,-0.0303,-0.0287,-0.0305,-0.0262,-0.031,-0.024,-0.0294,-0.0195,-0.0127,-0.0072,-0.0073,-0.018,-0.0161,-0.0139,-0.0234,-0.0236,0,0,0,-0.0333,-0.0345,-0.0356,-0.0356,-0.0361,-0.0358,-0.0298,-0.0287,-0.0254,-0.0126,-0.021,-0.0192,-0.0174,-0.0114,-0.0119,0.0132,-0.0068,-0.0068,-0.0068,-0.0405,-0.0398,-0.0439,-0.044,-0.0454,-0.0446,-0.0451,-0.0418,-0.0361,-0.0393,-0.0325,-0.0424,-0.037,-0.037,-0.0118,-0.0387,-0.0387,-0.0388,-0.0388,-0.0476,-0.0489,-0.0479,-0.0518,-0.0517,-0.0549,-0.0555,-0.0538,-0.0528,-0.0491,-0.0468,-0.0288,-0.0381,-0.011,-0.0397,-0.0396,-0.0394,-0.0394,-0.0393,-0.0507,-0.0517,-0.0527,-0.0553,-0.0576,-0.0583,-0.0574,-0.059,-0.0585,-0.0594,-0.0439,-0.0435,-0.0162,-0.0566,-0.0566,-0.0566,-0.0566,-0.0566,-0.0566,-0.0526,-0.0542,-0.0564,-0.0589,-0.0596,-0.0591,-0.0578,-0.0564,-0.0532,-0.0522,-0.0521,-0.017,-0.0475,-0.0428,-0.0565,-0.0565,-0.0565,-0.0565,-0.0565,-0.056,-0.0553,-0.0582,-0.0594,-0.0603,-0.0545,-0.0534,-0.0457,-0.0453,-0.0425,-0.0128,-0.0471,-0.0384,-0.038,-0.033,-0.0432,-0.0432,-0.0432,-0.0432,-0.0562,-0.057,-0.058,-0.059,-0.0585,-0.0524,-0.0368,-0.0281,-0.0115,0.0027,0.0064,0.0118,0.0102,0.0222,0.0213,0.0277,0.0331,0.0332,0.0333,-0.0563,-0.0565,-0.0566,-0.0581,-0.0576,-0.0464,-0.0239,-0.0,0.0247,0.0388,0.0393,0.0361,0.046,0.0415,0.0619,0.0586,0.0696,0,0]}],[{"header":{"parameterUnit":"m.s-1","parameterCategory":2,"la1":30.2992,"la2":30.254,"lo1":-89.0895,"lo2":-89.0443,"dy":0.0025,"dx":0.0025,"nx":19,"ny":19,"refTime":"2026-05-07T21:00:00:Z","depth":"2","parameterNumber":2,"parameterNumberName":"U-component_of_CURRENTS"},"data":[0,0,0,-0.2106,-0.2108,-0.2181,-0.2181,-0.2243,-0.2243,0,0,0,0,0,0,0,0,0,0,0,-0.2032,-0.2032,-0.2106,-0.2108,-0.2181,-0.2181,-0.2243,-0.2243,0,0,0,0,0,0,0,0,0,0,0,-0.2033,-0.2032,-0.2031,-0.2109,-0.2181,-0.2181,-0.2243,-0.2193,0,0,0,0,0,0,0,0,0,0,-0.2126,-0.207,-0.2032,-0.2031,-0.2109,-0.2181,-0.2181,-0.2191,-0.2196,-0.2203,0,-0.2183,0,-0.2239,-0.2247,-0.2248,0,0,0,-0.21,-0.2066,-0.209,-0.2031,-0.211,-0.2181,-0.2146,-0.2194,-0.22,-0.221,-0.2185,-0.2189,-0.224,-0.2248,-0.2248,-0.2412,-0.2413,0,0,-0.2096,-0.2051,-0.2085,-0.2092,-0.2088,-0.2144,-0.2148,-0.2198,-0.2184,-0.2185,-0.2191,-0.2241,-0.2248,-0.2249,-0.2411,-0.2412,0,0,0,-0.209,-0.2048,-0.2071,-0.2087,-0.2117,-0.2146,-0.2151,-0.2181,-0.2188,-0.2193,-0.2242,-0.2249,-0.2249,-0.2409,-0.2411,-0.2333,0,0,0,-0.2087,-0.2047,-0.2068,-0.2044,-0.2115,-0.2159,-0.2132,-0.2182,-0.2192,-0.2242,-0.2249,-0.225,-0.2408,-0.241,-0.2332,-0.218,0,0,0,-0.2036,-0.2043,-0.2038,-0.2041,-0.2083,-0.216,-0.217,-0.2186,-0.2224,-0.2248,-0.225,-0.2407,-0.241,-0.2331,-0.2184,-0.2078,0,0,0,-0.2009,-0.2043,-0.2036,-0.2098,-0.2082,-0.2212,-0.217,-0.2236,-0.226,-0.2249,-0.2408,-0.2411,-0.2331,-0.2186,-0.2082,-0.196,-0.1934,0,0,-0.2062,-0.2047,-0.2096,-0.2095,-0.2197,-0.2203,-0.2314,-0.2299,-0.2316,-0.2384,-0.2388,-0.2332,-0.2184,-0.2079,-0.2144,-0.211,0,0,0,-0.2125,-0.2125,-0.2169,-0.2205,-0.2292,-0.2275,-0.2348,-0.2374,-0.2389,-0.2348,-0.2419,-0.2327,-0.2262,-0.2202,-0.2179,-0.2426,-0.2426,-0.2425,-0.2425,-0.203,-0.2116,-0.2173,-0.2252,-0.2285,-0.2357,-0.2351,-0.2389,-0.2461,-0.2468,-0.2334,-0.228,-0.2227,-0.2205,-0.2478,-0.2477,-0.2477,-0.2477,-0.2477,-0.2054,-0.2064,-0.2108,-0.2174,-0.2161,-0.2193,-0.2274,-0.2303,-0.2296,-0.2382,-0.2326,-0.221,-0.2172,-0.2472,-0.2473,-0.2474,-0.2474,-0.2475,-0.2475,-0.1923,-0.1953,-0.1986,-0.2043,-0.1962,-0.2008,-0.1941,-0.2029,-0.2108,-0.2066,-0.1977,-0.1978,-0.21,-0.2042,-0.2041,-0.2039,-0.2039,-0.2038,-0.2037,-0.1766,-0.1841,-0.1823,-0.1892,-0.1821,-0.1744,-0.173,-0.1738,-0.1745,-0.1802,-0.1804,-0.213,-0.2145,-0.2076,-0.2021,-0.2024,-0.2026,-0.2027,-0.2029,-0.1649,-0.1661,-0.168,-0.164,-0.1581,-0.1471,-0.1507,-0.1438,-0.1439,-0.1417,-0.1678,-0.1692,-0.1664,-0.1687,-0.161,-0.1435,-0.1435,-0.1435,-0.1435,-0.1491,-0.1542,-0.1472,-0.1415,-0.137,-0.1309,-0.1137,-0.1111,-0.1196,-0.1231,-0.124,-0.1369,-0.1396,-0.1363,-0.1393,-0.1314,-0.1062,-0.1062,-0.1061,-0.1385,-0.1401,-0.1279,-0.1295,-0.1224,-0.1132,-0.0897,-0.0836,-0.1003,-0.1051,-0.1221,-0.1401,-0.1624,-0.1654,-0.1639,-0.1673,-0.1561,0,0]},{"header":{"parameterUnit":"m.s-1","parameterCategory":2,"la1":30.2992,"la2":30.254,"lo1":-89.0895,"lo2":-89.0443,"dy":0.0025,"dx":0.0025,"nx":19,"ny":19,"refTime":"2026-05-07T21:00:00:Z","depth":"2","parameterNumber":3,"parameterNumberName":"V-component_of_CURRENTS"},"data":[0,0,0,-0.0165,-0.0163,-0.0055,-0.0055,0.0157,0.0159,0,0,0,0,0,0,0,0,0,0,0,-0.0213,-0.0213,-0.0165,-0.0163,-0.0056,-0.0055,0.0157,0.0159,0,0,0,0,0,0,0,0,0,0,0,-0.0213,-0.0213,-0.0213,-0.0163,-0.0056,-0.0055,0.0156,0.0062,0,0,0,0,0,0,0,0,0,0,-0.005,-0.0119,-0.0213,-0.0213,-0.0162,-0.0056,-0.0055,0.0057,0.0068,0.0123,0,0.0116,0,0.0141,0.0173,0.0174,0,0,0,-0.0142,-0.0129,-0.0095,-0.0213,-0.0162,-0.0056,-0.0098,0.0062,0.0075,0.0138,0.012,0.0128,0.0145,0.0174,0.0176,0.0251,0.025,0,0,-0.0148,-0.0187,-0.0104,-0.0088,-0.0162,-0.0102,-0.0095,0.0069,0.007,0.012,0.0133,0.0148,0.0176,0.0177,0.0252,0.0251,0,0,0,-0.0179,-0.0191,-0.0163,-0.0097,-0.0084,-0.0099,-0.0091,0.0062,0.0072,0.0135,0.0151,0.0177,0.018,0.0253,0.0252,0.0026,0,0,0,-0.0182,-0.021,-0.0166,-0.0186,-0.0089,-0.0021,-0.0103,0.006,0.008,0.0149,0.0177,0.0182,0.0254,0.0252,0.0033,-0.002,0,0,0,-0.0213,-0.0213,-0.0209,-0.0189,-0.015,-0.0024,-0.0004,0.0065,0.0089,0.0174,0.0182,0.0254,0.0252,0.004,-0.0009,-0.0033,0,0,0,-0.0241,-0.0268,-0.0211,-0.0227,-0.0151,-0.0108,-0.0005,0.0034,0.009,0.0178,0.0253,0.0252,0.0043,-0.0002,-0.0027,0.0117,0.0101,0,0,-0.0293,-0.0276,-0.0282,-0.0228,-0.0228,-0.012,-0.0128,-0.002,0.0087,0.0211,0.0213,0.0031,-0.0008,-0.0032,0.0015,0.0002,0,0,0,-0.0308,-0.0324,-0.0308,-0.0295,-0.0235,-0.0229,-0.0115,-0.0073,-0.0018,0.0111,0.0059,0.0044,0.0035,0.0135,0.0124,0.0243,0.0244,0.0244,0.0244,-0.0421,-0.0387,-0.041,-0.0379,-0.0359,-0.0299,-0.0298,-0.0219,-0.0099,-0.0132,-0.0124,-0.0265,-0.0165,-0.017,-0.0123,-0.0124,-0.0125,-0.0126,-0.0126,-0.0499,-0.0511,-0.0494,-0.0507,-0.0495,-0.0492,-0.0449,-0.042,-0.039,-0.0289,-0.0288,-0.0086,-0.0195,-0.0144,-0.014,-0.0138,-0.0136,-0.0135,-0.0134,-0.0563,-0.0569,-0.0575,-0.0602,-0.0637,-0.0604,-0.062,-0.06,-0.0549,-0.0597,-0.0372,-0.0365,-0.0367,-0.0572,-0.0572,-0.0573,-0.0573,-0.0573,-0.0574,-0.0614,-0.0625,-0.0655,-0.0686,-0.07,-0.071,-0.0703,-0.0691,-0.0623,-0.0555,-0.0552,-0.0412,-0.0398,-0.0387,-0.058,-0.0579,-0.0578,-0.0577,-0.0577,-0.0683,-0.0674,-0.0709,-0.073,-0.075,-0.0702,-0.0716,-0.0633,-0.0634,-0.0584,-0.0506,-0.0506,-0.0389,-0.0375,-0.036,-0.0534,-0.0534,-0.0534,-0.0534,-0.0718,-0.072,-0.0735,-0.0751,-0.076,-0.0697,-0.0558,-0.0378,-0.0323,-0.0177,-0.0191,-0.0077,-0.0088,0.0056,0.006,0.0088,0.003,0.0032,0.0033,-0.0754,-0.0741,-0.0754,-0.0754,-0.0751,-0.0644,-0.0408,0.0011,0.0312,0.006,-0.004,-0.0507,-0.0376,-0.0378,-0.0179,-0.0165,-0.0127,0,0]}],[{"header":{"parameterUnit":"m.s-1","parameterCategory":2,"la1":30.2992,"la2":30.254,"lo1":-89.0895,"lo2":-89.0443,"dy":0.0025,"dx":0.0025,"nx":19,"ny":19,"refTime":"2026-05-07T21:00:00:Z","depth":"4","parameterNumber":2,"parameterNumberName":"U-component_of_CURRENTS"},"data":[0,0,0,-0.1354,-0.1356,-0.1487,-0.1487,-0.1609,-0.161,0,0,0,0,0,0,0,0,0,0,0,-0.1317,-0.1318,-0.1354,-0.1356,-0.1487,-0.1487,-0.1609,-0.161,0,0,0,0,0,0,0,0,0,0,0,-0.1316,-0.1318,-0.1319,-0.1357,-0.1486,-0.1487,-0.1609,-0.1525,0,0,0,0,0,0,0,0,0,0,-0.1405,-0.1373,-0.1317,-0.1319,-0.1357,-0.1486,-0.1487,-0.1521,-0.153,-0.1533,0,-0.1555,0,-0.1575,-0.1616,-0.1616,0,0,0,-0.137,-0.1366,-0.1397,-0.1319,-0.1358,-0.1486,-0.1432,-0.1527,-0.1536,-0.1544,-0.1557,-0.1562,-0.1577,-0.1616,-0.1617,-0.1713,-0.1714,0,0,-0.1363,-0.1344,-0.139,-0.1403,-0.1394,-0.1427,-0.1435,-0.1533,-0.1545,-0.1557,-0.1565,-0.1579,-0.1617,-0.1618,-0.1713,-0.1713,0,0,0,-0.1333,-0.1339,-0.137,-0.1398,-0.142,-0.1431,-0.144,-0.1541,-0.155,-0.1566,-0.1581,-0.1618,-0.1619,-0.1713,-0.1713,-0.1724,0,0,0,-0.1329,-0.1321,-0.1367,-0.1358,-0.1418,-0.1487,-0.1445,-0.1544,-0.1556,-0.158,-0.1618,-0.1619,-0.1712,-0.1713,-0.1723,-0.1703,0,0,0,-0.1311,-0.1319,-0.1334,-0.1356,-0.1406,-0.1486,-0.1503,-0.1548,-0.1563,-0.1616,-0.162,-0.1712,-0.1713,-0.1722,-0.1702,-0.1703,0,0,0,-0.1288,-0.131,-0.1334,-0.1377,-0.1404,-0.1495,-0.1503,-0.1583,-0.1634,-0.1618,-0.1712,-0.1713,-0.1722,-0.1701,-0.1702,-0.1428,0,0,0,-0.1298,-0.1311,-0.1339,-0.1363,-0.1439,-0.1478,-0.1561,-0.1629,-0.1644,-0.1678,-0.1681,-0.1724,-0.1702,-0.1703,-0.1487,0,0,0,0,-0.1331,-0.1351,-0.1382,-0.1435,-0.1501,-0.156,-0.163,-0.1654,-0.1707,-0.1675,-0.174,-0.1725,-0.1725,-0.1565,-0.1718,-0.1718,-0.1717,-0.1717,-0.1717,-0.1307,-0.1358,-0.1414,-0.1485,-0.1545,-0.163,-0.1671,-0.1712,-0.1737,-0.176,-0.1748,-0.177,-0.1604,-0.1776,-0.1776,-0.1776,-0.1776,-0.1776,-0.1777,-0.1316,-0.1339,-0.143,-0.1502,-0.1576,-0.1647,-0.1714,-0.1735,-0.1765,-0.1776,-0.1776,-0.1605,-0.1778,-0.1778,-0.1777,-0.1777,-0.1777,-0.1777,-0.1777,-0.1264,-0.1284,-0.1359,-0.1468,-0.1561,-0.165,-0.1654,-0.1722,-0.1759,-0.1763,-0.1595,-0.1771,-0.1753,-0.1776,-0.1776,-0.1776,-0.1776,-0.1776,-0.1776,-0.1167,-0.1245,-0.1289,-0.1427,-0.1491,-0.1559,-0.1622,-0.1592,-0.1657,-0.156,-0.1766,-0.1769,-0.1769,-0.1753,-0.1775,-0.1775,-0.1775,-0.1775,-0.1775,-0.1086,-0.1117,-0.1169,-0.1233,-0.1367,-0.1408,-0.1502,-0.1389,-0.1356,-0.1293,-0.1449,-0.1465,-0.1428,-0.1436,-0.1407,-0.1326,-0.1323,-0.1319,0,-0.0998,-0.1027,-0.1049,-0.1099,-0.115,-0.1293,-0.1143,-0.1132,-0.1184,-0.1176,-0.1397,-0.1582,-0.1589,-0.1557,-0.1558,-0.1527,0,0,0,-0.094,-0.0951,-0.092,-0.0983,-0.1044,-0.1036,-0.1093,-0.1008,-0.1226,-0.1026,-0.1231,-0.1254,-0.1492,-0.1772,-0.1754,-0.1754,-0.1726,0,0]},{"header":{"parameterUnit":"m.s-1","parameterCategory":2,"la1":30.2992,"la2":30.254,"lo1":-89.0895,"lo2":-89.0443,"dy":0.0025,"dx":0.0025,"nx":19,"ny":19,"refTime":"2026-05-07T21:00:00:Z","depth":"4","parameterNumber":3,"parameterNumberName":"V-component_of_CURRENTS"},"data":[0,0,0,0.0024,0.0025,0.0067,0.0067,0.0198,0.0199,0,0,0,0,0,0,0,0,0,0,0,0.0013,0.0013,0.0024,0.0025,0.0067,0.0067,0.0198,0.0199,0,0,0,0,0,0,0,0,0,0,0,0.0013,0.0013,0.0013,0.0025,0.0067,0.0068,0.0197,0.0151,0,0,0,0,0,0,0,0,0,0,0.0102,0.0073,0.0013,0.0013,0.0025,0.0067,0.0068,0.0148,0.0154,0.0195,0,0.019,0,0.0191,0.0208,0.0208,0,0,0,0.0042,0.0067,0.0077,0.0013,0.0025,0.0067,0.0053,0.0151,0.0157,0.0203,0.0192,0.0196,0.0193,0.0209,0.0209,0.0338,0.0338,0,0,0.004,0.0029,0.0072,0.008,0.0023,0.0051,0.0054,0.0154,0.0159,0.0192,0.0199,0.0195,0.021,0.0211,0.0337,0.0338,0,0,0,0.0021,0.0027,0.0033,0.0076,0.0073,0.0052,0.0055,0.0155,0.0155,0.02,0.0196,0.021,0.0212,0.0337,0.0337,0.0267,0,0,0,0.0021,0.0015,0.0032,0.0027,0.007,0.0103,0.0054,0.0148,0.0159,0.0196,0.021,0.0213,0.0336,0.0337,0.0268,0.0199,0,0,0,0.0013,0.0015,0.0015,0.0026,0.0036,0.0101,0.0108,0.0151,0.0157,0.0208,0.0214,0.0336,0.0337,0.0269,0.0202,0.0226,0,0,0,0.0009,-0.0016,0.0014,-0.0005,0.0035,0.0064,0.0107,0.0141,0.018,0.0211,0.0336,0.0337,0.0269,0.0204,0.0228,0.0237,0,0,0,-0.003,-0.0021,-0.0031,-0.0004,-0.0005,0.006,0.0088,0.0155,0.0215,0.0311,0.0314,0.0268,0.0203,0.0227,0.0296,0,0,0,0,-0.0048,-0.0061,-0.0052,-0.0045,-0.0003,0.0031,0.0111,0.0166,0.0247,0.024,0.0308,0.0269,0.0286,0.0298,0.0342,0.0342,0.0342,0.0342,0.0342,-0.0103,-0.0089,-0.011,-0.0086,-0.0056,0.0028,0.0072,0.0167,0.0237,0.0273,0.0243,0.0249,0.0262,0.0301,0.0301,0.0301,0.03,0.03,0.03,-0.0169,-0.0187,-0.0162,-0.0182,-0.0124,-0.0085,0.0039,0.0097,0.0193,0.0237,0.026,0.0261,0.0294,0.0295,0.0296,0.0297,0.0297,0.0298,0.0298,-0.0204,-0.0219,-0.0229,-0.0252,-0.0243,-0.0168,-0.0135,-0.0037,0.0104,0.0116,0.0187,0.0214,0.0186,0.0152,0.0151,0.0151,0.0151,0.0151,0.0151,-0.0238,-0.0255,-0.0303,-0.0327,-0.0344,-0.0335,-0.0238,-0.0156,-0.002,0.0092,0.0099,0.0199,0.0204,0.018,0.0148,0.0148,0.0149,0.0149,0.0149,-0.0295,-0.0298,-0.0368,-0.0403,-0.0453,-0.0448,-0.0374,-0.0174,-0.008,0.0047,0.0117,0.0119,0.0147,0.0153,0.0128,0.0079,0.0079,0.0079,0,-0.0323,-0.0335,-0.0414,-0.0477,-0.0526,-0.0504,-0.0377,-0.0253,-0.0066,-0.0064,-0.0088,-0.0022,-0.0014,0.0005,0.0012,-0.0025,0,0,0,-0.036,-0.037,-0.0424,-0.0485,-0.0548,-0.0424,-0.0341,-0.0257,-0.0101,0.0033,0.0078,0.0079,0.0078,0.0139,0.0188,0.0194,0.0158,0,0]}]]